sat.trackr.live / text

‹ back to catalog

GHGSAT-C4

NORAD 52746 · 2022-057Q

PAYLOAD ACTIVE UNKNOWN

§ Identity

Operator
Country
CA
Launch date
2022-05-25
Launch site
AFETR
Launch vehicle
Mass (kg)
RCS (m²)

External: N2YO · Heavens-Above · Gunter

§ Orbital elements

Epoch: 2026-09-20T23:08:41.789184Z

Period
93.79 min
Inclination
97.6654°
Eccentricity
0.0007198
Mean motion
15.35379135 rev/d
Perigee alt
454.9 km
Apogee alt
464.7 km
Semi-major
6,837.9 km
B*
1.4621e-4
RAAN
52.1019°
Arg perigee
119.1812°
Mean anomaly
241.0151°
Rev number
24,023

§ Raw data

GHGSAT-C41 52746U 22057Q   26263.96437256  .00004941  00000+0  14621-3 0  99952 52746  97.6654  52.1019 0007198 119.1812 241.0151 15.35379135240236

JSON: /api/v1/satellites/52746 · /tle

For live sub-satellite position, see the globe view (requires WebGL).

§ Visibility from observer

Set your observer location to see the next 7 days of passes ≥ 10°. The values pass through the URL so the page stays shareable.

No JS? Fill the form by hand. The geolocation button needs JavaScript.